Omaha Millard, NE

1:37 AM CST on February 21, 2018 (GMT -0600)
Millard Municipal

Weather History for KMLE - October, 2012

Change the Weather History Date:

Thursday, October 18, 2012

  Actual Average (KOFF) Record (KOFF)
Temperature  
Mean Temperature 48 °F -  
Max Temperature 52 °F 62 °F 86 °F (2005)
Min Temperature 44 °F 42 °F 33 °F (1999)
Degree Days  
Heating Degree Days 17    
Moisture  
Dew Point 33 °F    
Average Humidity 58    
Maximum Humidity 90    
Minimum Humidity 32    
Precipitation  
Precipitation 0.14 in - - ()
Sea Level Pressure  
Sea Level Pressure 29.55 in    
Wind  
Wind Speed 20 mph (WNW)    
Max Wind Speed 34 mph    
Max Gust Speed 58 mph    
Visibility 9 miles    
Events Rain    
Averages and records for this station are not official NWS values.
T = Trace of Precipitation, MM = Missing Value Source: NWS Daily Summary

Daily Weather History Graph

Daily Weather History Graph

Search for Another Location

Airport or City:

Trip Planner

Search our weather history database for the weather conditions in past years. The results will help you decide how hot, cold, wet, or windy it might be!

Date:

Astronomy

Oct. 18, 2012 Rise Set
Actual Time 7:40 AM CDT 6:38 PM CDT
Civil Twilight 7:12 AM CDT 7:06 PM CDT
Nautical Twilight 6:40 AM CDT 7:38 PM CDT
Astronomical Twilight 6:08 AM CDT 8:10 PM CDT
Moon 11:25 AM CDT (10/18) 9:11 PM CDT (10/18)
Length of Visible Light 11h 54m
Length of Day
10h 58m
Waxing Crescent, 14% of the Moon is Illuminated
Oct 18
Waxing Crescent
Oct 21
First Quarter
Oct 29
Full
Nov 6
Last Quarter
Nov 13
New

Hourly Weather History & Observations

Time (CDT) Temp. Windchill Dew Point Humidity Pressure Visibility Wind Dir Wind Speed Gust Speed Precip Events Conditions
12:15 AM 52.3 °F - 24.1 °F 33% 29.57 in 10.0 mi West 15.0 mph 20.7 mph N/A   Clear
12:35 AM 52.0 °F - 23.9 °F 34% 29.57 in 10.0 mi WNW 19.6 mph 26.5 mph N/A   Clear
12:55 AM 52.0 °F - 23.0 °F 32% 29.57 in 10.0 mi West 18.4 mph 26.5 mph N/A   Clear
1:15 AM 51.8 °F - 23.0 °F 33% 29.56 in 10.0 mi West 19.6 mph 27.6 mph N/A   Clear
1:35 AM 51.6 °F - 23.2 °F 33% 29.55 in 10.0 mi West 19.6 mph 26.5 mph N/A   Clear
1:55 AM 51.1 °F - 23.5 °F 34% 29.56 in 10.0 mi West 17.3 mph 23.0 mph N/A   Clear
2:15 AM 50.7 °F - 23.5 °F 35% 29.55 in 10.0 mi West 17.3 mph 24.2 mph N/A   Clear
2:35 AM 50.7 °F - 23.0 °F 34% 29.55 in 10.0 mi West 19.6 mph 27.6 mph N/A   Clear
2:55 AM 50.2 °F - 23.0 °F 35% 29.55 in 10.0 mi West 17.3 mph 25.3 mph N/A   Clear
3:15 AM 50.0 °F - 23.0 °F 35% 29.54 in 10.0 mi West 19.6 mph 28.8 mph N/A   Clear
3:35 AM 49.6 °F - 23.0 °F 35% 29.54 in 10.0 mi West 18.4 mph 28.8 mph N/A   Clear
3:55 AM 49.6 °F - 23.0 °F 35% 29.54 in 10.0 mi West 19.6 mph 27.6 mph N/A   Scattered Clouds
4:15 AM 49.1 °F - 23.5 °F 37% 29.54 in 10.0 mi West 16.1 mph 26.5 mph N/A   Clear
4:35 AM 49.1 °F - 23.7 °F 37% 29.53 in 10.0 mi West 16.1 mph 24.2 mph N/A   Clear
4:55 AM 48.7 °F - 24.1 °F 38% 29.52 in 10.0 mi West 19.6 mph 27.6 mph N/A   Scattered Clouds
5:15 AM 48.9 °F - 24.4 °F 38% 29.53 in 10.0 mi West 13.8 mph 23.0 mph N/A   Scattered Clouds
5:35 AM 49.1 °F - 24.6 °F 38% 29.52 in 10.0 mi West 17.3 mph 21.9 mph N/A   Clear
5:55 AM 48.9 °F - 24.6 °F 39% 29.52 in 10.0 mi WNW 16.1 mph 24.2 mph N/A   Clear
6:35 AM 48.9 °F - 24.8 °F 39% 29.52 in 10.0 mi West 15.0 mph 20.7 mph N/A   Scattered Clouds
6:55 AM 49.1 °F - 24.8 °F 39% 29.52 in 10.0 mi WNW 18.4 mph 23.0 mph N/A   Clear
7:15 AM 49.1 °F - 24.8 °F 39% 29.52 in 10.0 mi WNW 19.6 mph 28.8 mph N/A   Clear
7:35 AM 49.1 °F - 25.9 °F 40% 29.51 in 10.0 mi West 19.6 mph 24.2 mph N/A   Scattered Clouds
7:55 AM 49.1 °F - 25.9 °F 40% 29.51 in 10.0 mi West 16.1 mph 24.2 mph N/A   Mostly Cloudy
8:15 AM 50.0 °F - 26.1 °F 39% 29.51 in 10.0 mi West 19.6 mph 27.6 mph N/A   Mostly Cloudy
8:35 AM 50.4 °F - 26.4 °F 39% 29.51 in 10.0 mi WNW 20.7 mph 29.9 mph N/A   Mostly Cloudy
8:55 AM 50.9 °F - 26.4 °F 39% 29.51 in 10.0 mi WNW 19.6 mph 28.8 mph N/A   Overcast
9:15 AM 50.9 °F - 27.1 °F 40% 29.51 in 10.0 mi WNW 19.6 mph 42.6 mph N/A   Overcast
9:35 AM 50.9 °F - 27.3 °F 40% 29.51 in 10.0 mi WNW 21.9 mph 31.1 mph N/A   Overcast
9:55 AM 50.5 °F - 28.2 °F 42% 29.51 in 10.0 mi WNW 21.9 mph 40.3 mph N/A   Overcast
10:15 AM 50.4 °F - 28.4 °F 43% 29.51 in 10.0 mi WNW 23.0 mph 35.7 mph N/A   Overcast
10:35 AM 50.4 °F - 29.7 °F 45% 29.51 in 10.0 mi WNW 27.6 mph 35.7 mph N/A   Overcast
10:55 AM 50.9 °F - 29.7 °F 44% 29.51 in 10.0 mi WNW 23.0 mph 36.8 mph N/A   Overcast
11:15 AM 50.9 °F - 30.0 °F 45% 29.50 in 10.0 mi West 28.8 mph 35.7 mph N/A   Overcast
11:35 AM 50.9 °F - 30.7 °F 46% 29.51 in 10.0 mi WNW 28.8 mph 40.3 mph N/A   Overcast
11:55 AM 50.4 °F - 32.2 °F 50% 29.51 in 10.0 mi WNW 21.9 mph 38.0 mph N/A Rain Light Rain
12:15 PM 50.2 °F - 32.2 °F 50% 29.52 in 10.0 mi WNW 21.9 mph 36.8 mph N/A   Overcast
12:35 PM 50.9 °F - 32.5 °F 49% 29.52 in 10.0 mi WNW 24.2 mph 38.0 mph N/A   Overcast
12:55 PM 50.0 °F - 34.0 °F 54% 29.52 in 10.0 mi WNW 21.9 mph 36.8 mph N/A   Overcast
1:15 PM 49.1 °F - 35.1 °F 58% 29.52 in 7.0 mi WNW 24.2 mph 40.3 mph N/A   Drizzle
1:35 PM 47.3 °F - 37.4 °F 68% 29.51 in 7.0 mi WNW 25.3 mph 36.8 mph N/A   Drizzle
1:55 PM 46.8 °F - 38.1 °F 72% 29.51 in 7.0 mi WNW 26.5 mph 38.0 mph N/A   Drizzle
2:15 PM 47.5 °F - 37.6 °F 69% 29.51 in 7.0 mi WNW 27.6 mph 42.6 mph N/A Rain Rain
2:35 PM 47.7 °F - 38.3 °F 70% 29.50 in 10.0 mi WNW 19.6 mph 32.2 mph N/A   Light Drizzle
2:55 PM 49.1 °F - 37.4 °F 64% 29.50 in 10.0 mi WNW 33.4 mph 41.4 mph N/A   Overcast
3:15 PM 48.2 °F - 38.7 °F 70% 29.50 in 10.0 mi WNW 33.4 mph 47.2 mph N/A Rain Rain
3:35 PM 46.8 °F - 40.8 °F 80% 29.51 in 7.0 mi WNW 26.5 mph 42.6 mph 0.01 in Rain Light Rain
3:55 PM 46.4 °F 36.7 °F 41.7 °F 84% 29.52 in 7.0 mi WNW 33.4 mph 43.7 mph 0.03 in Rain Light Rain
4:15 PM 45.7 °F 36.6 °F 41.9 °F 87% 29.53 in 4.0 mi NW 27.6 mph 57.5 mph 0.02 in Rain Light Rain
4:35 PM 45.7 °F 36.9 °F 42.6 °F 89% 29.53 in 4.0 mi WNW 25.3 mph 32.2 mph 0.02 in Rain Light Rain
4:55 PM 46.8 °F - 41.2 °F 81% 29.54 in 10.0 mi NW 27.6 mph 41.4 mph 0.02 in   Overcast
5:15 PM 47.3 °F - 41.0 °F 79% 29.55 in 10.0 mi NW 26.5 mph 40.3 mph N/A   Overcast
5:35 PM 47.3 °F - 40.8 °F 78% 29.56 in 10.0 mi WNW 24.2 mph 42.6 mph N/A Rain Rain
5:55 PM 46.6 °F - 41.5 °F 83% 29.57 in 10.0 mi WNW 29.9 mph 39.1 mph 0.01 in   Drizzle
6:15 PM 45.9 °F 37.6 °F 41.9 °F 86% 29.58 in 7.0 mi NW 23.0 mph 43.7 mph N/A   Drizzle
6:35 PM 46.0 °F 36.1 °F 41.9 °F 85% 29.59 in 10.0 mi NW 34.5 mph 44.9 mph 0.01 in   Drizzle
6:55 PM 45.9 °F 37.0 °F 41.9 °F 86% 29.60 in 10.0 mi NW 26.5 mph 38.0 mph 0.01 in   Drizzle
7:15 PM 45.5 °F 36.3 °F 41.9 °F 87% 29.61 in 7.0 mi NW 27.6 mph 40.3 mph N/A Rain Light Rain
7:35 PM 45.5 °F 36.3 °F 41.7 °F 87% 29.61 in 10.0 mi NW 27.6 mph 38.0 mph 0.01 in   Drizzle
7:55 PM 45.7 °F 37.8 °F 41.5 °F 85% 29.61 in 10.0 mi NW 20.7 mph 36.8 mph 0.01 in Rain Rain
8:15 PM 45.5 °F 37.1 °F 41.4 °F 85% 29.62 in 10.0 mi NW 23.0 mph 34.5 mph N/A   Drizzle
8:35 PM 45.5 °F 36.9 °F 41.5 °F 86% 29.62 in 10.0 mi NW 24.2 mph 34.5 mph N/A Rain Light Rain
8:55 PM 45.0 °F 38.2 °F 42.1 °F 90% 29.62 in 10.0 mi NW 15.0 mph 25.3 mph 0.01 in Rain Light Rain
9:15 PM 45.1 °F 37.1 °F 42.1 °F 89% 29.62 in 7.0 mi NW 20.7 mph 31.1 mph 0.01 in Rain Light Rain
9:35 PM 45.5 °F 38.3 °F 42.1 °F 88% 29.62 in 10.0 mi NW 17.3 mph 32.2 mph 0.01 in   Drizzle
9:55 PM 45.1 °F 37.3 °F 41.9 °F 88% 29.62 in 10.0 mi NW 19.6 mph 31.1 mph 0.02 in Rain Light Rain
10:15 PM 45.0 °F 36.2 °F 41.9 °F 89% 29.62 in 10.0 mi NW 24.2 mph 31.1 mph 0.01 in Rain Light Rain
10:35 PM 44.6 °F 36.4 °F 41.9 °F 90% 29.62 in 7.0 mi NW 20.7 mph 33.4 mph 0.02 in Rain Light Rain
10:55 PM 44.6 °F 36.6 °F 41.9 °F 90% 29.62 in 10.0 mi WNW 19.6 mph 27.6 mph 0.03 in Rain Light Rain